Location: Augustenthal
(51.7167°N, 10.2833°E)
Time: 15:49:20
(UTC+00:00)

ISS - Pass Details

Date: 22 September 2021
Orbit: 418 x 423 km, 51.6° (Epoch: 21 October)

Event Time Altitude Azimuth Distance (km) Brightness Sun altitude
Rises 18:53:25 0° 256° (WSW) 2,361 1.0 -15.5°
Reaches altitude 10° 18:55:30 10° 256° (WSW) 1,499 -0.1 -15.8°
Maximum altitude 18:58:52 79° 169° (S) 432 -3.9 -16.3°
Enters shadow 18:59:54 42° 89° (E) 618 -3.4 -16.4°
